Date String (YYYY-MM-DD hh:mm:ss) UTC,Instrument flags,Ambient pressure (hPa),Sample flow (lpm),Bypass flow (lpm),Sample temperature (°C),Ambient temperature (°C),ASC tube jacket temperature (°C),LED temperature (°C),Box temperature (°C),Sample RH (%),Span deviation,Mass concentration (μg/m³),Mass concentration (μg/m³),Mass concentration (μg/m³)
DateTimeUTC,F1_M11,P_M11,Q1_M11,Q2_M11,T1_M11,T2_M11,T3_M11,T4_M11,T5_M11,U1_M11,ZSPAN_M11,X2_M11,X0_M11,X1_M11
2022-04-26 22:00:00,,0824.0,5.01,0.00,28.9,28.3,00.0,37.7,30.8,05.3,0003.2,0011.33,0033.10,0005.81
2022-04-26 22:01:00,,0824.0,5.00,0.00,29.0,28.3,00.0,37.7,30.8,05.1,0002.9,0011.19,0031.95,0005.77
2022-04-26 22:02:00,,0824.0,4.99,0.00,29.0,28.3,00.0,37.7,30.8,05.1,0002.5,0010.90,0030.50,0005.67
2022-04-26 22:03:00,,0824.0,4.99,0.00,29.0,28.3,00.0,37.7,30.8,05.2,0002.7,0010.64,0030.41,0005.59
2022-04-26 22:04:00,,0824.0,5.02,0.00,29.0,28.4,00.0,37.8,30.8,05.1,0002.0,0010.42,0029.39,0005.51
2022-04-26 22:05:00,,0823.9,4.99,0.00,29.0,28.4,00.0,37.8,30.8,05.2,0001.8,0010.21,0028.92,0005.46
2022-04-26 22:06:00,,0824.0,4.99,0.00,29.0,28.4,00.0,37.8,30.8,05.2,0002.2,0010.11,0028.33,0005.43
2022-04-26 22:07:00,,0824.0,4.99,0.00,29.0,28.4,00.0,37.8,30.9,05.1,0002.4,0010.16,0027.19,0005.44
2022-04-26 22:08:00,,0824.0,5.02,0.00,29.1,28.4,00.0,37.8,30.8,05.2,0002.0,0010.12,0026.67,0005.41
2022-04-26 22:09:00,,0823.9,5.00,0.00,29.1,28.4,00.0,37.8,30.8,05.4,0002.1,0010.10,0024.78,0005.44
2022-04-26 22:10:00,,0823.9,4.99,0.00,29.1,28.4,00.0,37.9,30.9,05.5,0002.7,0010.20,0024.36,0005.45
2022-04-26 22:11:00,,0823.9,4.99,0.00,29.1,28.4,00.0,37.9,30.9,05.8,0002.7,0010.24,0024.53,0005.44
2022-04-26 22:12:00,,0823.9,5.01,0.00,29.1,28.5,00.0,37.9,30.9,05.4,0002.4,0010.12,0024.96,0005.43
2022-04-26 22:13:00,,0823.9,4.99,0.00,29.1,28.5,00.0,37.9,31.0,05.6,0002.8,0010.07,0025.07,0005.44
2022-04-26 22:14:00,,0823.9,5.00,0.00,29.2,28.5,00.0,37.9,31.0,05.4,0002.3,0010.14,0024.56,0005.45
2022-04-26 22:15:00,,0823.9,5.01,0.00,29.2,28.5,00.0,37.9,31.0,05.4,0002.7,0010.19,0024.84,0005.45
2022-04-26 22:16:00,,0823.9,4.99,0.00,29.2,28.5,00.0,38.0,31.0,05.5,0002.9,0010.21,0024.67,0005.45
2022-04-26 22:17:00,,0823.9,5.00,0.00,29.2,28.6,00.0,38.0,31.0,05.4,0002.4,0010.26,0025.12,0005.44
2022-04-26 22:18:00,,0823.9,5.00,0.00,29.2,28.6,00.0,38.0,31.1,05.4,0003.1,0010.30,0025.72,0005.44
2022-04-26 22:19:00,,0823.9,5.00,0.00,29.3,28.6,00.0,38.0,31.1,05.3,0003.7,0010.32,0025.36,0005.47
2022-04-26 22:20:00,,0823.8,5.00,0.00,29.3,28.6,00.0,38.0,31.1,05.3,0004.2,0010.33,0025.41,0005.47
2022-04-26 22:21:00,,0823.8,4.99,0.00,29.3,28.6,00.0,38.0,31.1,05.2,0004.4,0010.28,0025.27,0005.48
2022-04-26 22:22:00,,0823.8,4.99,0.00,29.3,28.6,00.0,38.1,31.1,05.3,0004.5,0010.27,0025.16,0005.49
2022-04-26 22:23:00,,0823.7,5.01,0.00,29.3,28.7,00.0,38.1,31.1,05.5,0003.9,0010.30,0024.66,0005.48
2022-04-26 22:24:00,,0823.7,5.01,0.00,29.3,28.7,00.0,38.1,31.2,05.3,0003.3,0010.44,0025.32,0005.50
2022-04-26 22:25:00,,0823.7,5.00,0.00,29.4,28.7,00.0,38.1,31.2,05.2,0002.2,0010.40,0025.20,0005.51
2022-04-26 22:26:00,,0823.7,5.00,0.00,29.4,28.7,00.0,38.1,31.2,05.3,0002.1,0010.35,0024.69,0005.53
2022-04-26 22:27:00,,0823.8,5.01,0.00,29.4,28.7,00.0,38.2,31.2,05.4,0001.6,0010.34,0024.72,0005.54
2022-04-26 22:28:00,,0823.8,4.99,0.00,29.4,28.8,00.0,38.2,31.2,05.6,0001.8,0010.33,0024.63,0005.55
2022-04-26 22:29:00,,0823.8,5.01,0.00,29.4,28.8,00.0,38.2,31.2,05.4,0000.8,0010.23,0024.13,0005.56
2022-04-26 22:30:00,,0823.8,5.00,0.00,29.5,28.8,00.0,38.2,31.3,05.4,0002.0,0010.23,0024.75,0005.56
2022-04-26 22:31:00,,0823.8,4.99,0.00,29.5,28.8,00.0,38.2,31.3,05.2,0000.8,0010.25,0025.52,0005.57
2022-04-26 22:32:00,,0823.8,5.01,0.00,29.5,28.8,00.0,38.2,31.3,05.5,0000.4,0010.25,0025.42,0005.56
2022-04-26 22:33:00,,0823.8,5.01,0.00,29.5,28.8,00.0,38.3,31.3,05.5,0000.8,0010.15,0025.17,0005.55
2022-04-26 22:34:00,,0823.7,4.99,0.00,29.5,28.8,00.0,38.3,31.3,05.5,0001.7,0010.07,0025.37,0005.54
2022-04-26 22:35:00,,0823.7,4.99,0.00,29.5,28.8,00.0,38.3,31.3,05.4,0001.4,0010.03,0024.62,0005.53
2022-04-26 22:36:00,,0823.7,5.00,0.00,29.5,28.8,00.0,38.3,31.3,05.2,0000.9,0009.98,0024.66,0005.54
2022-04-26 22:37:00,,0823.6,5.00,0.00,29.5,28.8,00.0,38.3,31.3,05.1,0000.5,0009.94,0025.06,0005.51
2022-04-26 22:38:00,,0823.7,4.99,0.00,29.5,28.9,00.0,38.3,31.3,05.2,0001.4,0009.96,0025.38,0005.50
2022-04-26 22:39:00,,0823.7,5.00,0.00,29.6,28.9,00.0,38.3,31.3,05.1,0000.1,0010.01,0025.59,0005.51
2022-04-26 22:40:00,,0823.6,5.01,0.00,29.6,28.9,00.0,38.3,31.4,05.1,0000.9,0010.09,0025.42,0005.50
2022-04-26 22:41:00,,0823.7,4.99,0.00,29.6,28.9,00.0,38.4,31.4,05.3,0000.3,0010.06,0024.77,0005.50
2022-04-26 22:42:00,,0823.7,5.00,0.00,29.6,28.9,00.0,38.4,31.4,05.5,0000.2,0010.06,0024.18,0005.50
2022-04-26 22:43:00,,0823.7,5.01,0.00,29.6,28.9,00.0,38.4,31.4,05.3,0000.6,0010.10,0024.51,0005.49
2022-04-26 22:44:00,,0823.6,5.00,0.00,29.6,28.9,00.0,38.4,31.4,05.1,0001.3,0010.10,0024.63,0005.48
2022-04-26 22:45:00,,0823.6,4.99,0.00,29.6,28.9,00.0,38.4,31.4,05.2,0001.6,0010.10,0024.37,0005.50
2022-04-26 22:46:00,,0823.6,4.99,0.00,29.6,28.9,00.0,38.4,31.4,05.2,0002.1,0010.04,0024.35,0005.51
2022-04-26 22:47:00,,0823.6,5.02,0.00,29.6,28.9,00.0,38.4,31.4,05.3,0003.6,0010.09,0024.11,0005.52
2022-04-26 22:48:00,,0823.7,4.99,0.00,29.6,28.9,00.0,38.4,31.4,05.2,0003.8,0010.10,0023.92,0005.51
2022-04-26 22:49:00,,0823.6,5.00,0.00,29.6,28.9,00.0,38.5,31.4,05.3,0002.9,0010.00,0023.73,0005.50
2022-04-26 22:50:00,,0823.6,5.01,0.00,29.6,28.9,00.0,38.5,31.4,05.2,0001.6,0009.89,0023.23,0005.50
2022-04-26 22:51:00,,0823.6,4.98,0.00,29.7,29.0,00.0,38.5,31.4,05.2,0000.1,0009.85,0022.93,0005.50
2022-04-26 22:52:00,,0823.6,5.01,0.00,29.7,29.0,00.0,38.5,31.4,05.2,0000.5,0009.83,0023.08,0005.51
2022-04-26 22:53:00,,0823.6,4.99,0.00,29.7,29.0,00.0,38.5,31.4,05.1,0000.0,0009.90,0023.55,0005.52
2022-04-26 22:54:00,,0823.6,5.00,0.00,29.7,29.0,00.0,38.5,31.4,05.3,0000.0,0009.93,0023.58,0005.55
2022-04-26 22:55:00,,0823.6,5.02,0.00,29.7,29.0,00.0,38.5,31.4,05.4,0000.0,0009.97,0024.02,0005.56
2022-04-26 22:56:00,,0823.6,4.98,0.00,29.7,29.0,00.0,38.5,31.4,05.3,0000.0,0010.06,0024.87,0005.56
2022-04-26 22:57:00,,0823.5,5.01,0.00,29.7,29.0,00.0,38.5,31.4,05.2,0000.0,0010.05,0025.70,0005.55
2022-04-26 22:58:00,,0823.5,5.00,0.00,29.7,29.0,00.0,38.5,31.4,05.2,0000.8,0010.05,0026.01,0005.56
2022-04-26 22:59:00,,0823.5,5.00,0.00,29.7,29.0,00.0,38.5,31.5,05.1,0002.6,0009.98,0025.42,0005.57
